Weather History for Cape Cod CGAS, MA

Change the Weather History Date:

Friday, February 6, 2009

  Actual Average Record
Temperature  
Mean Temperature 14 °F -  
Max Temperature 23 °F 36 °F 50 °F (2008)
Min Temperature 5 °F 21 °F 5 °F (2009)
Degree Days  
Heating Degree Days 51    
Moisture  
Dew Point 6 °F    
Average Humidity 70    
Maximum Humidity 79    
Minimum Humidity 54    
Precipitation  
Precipitation 0.00 in - - ()
Snow  
Snow 0.00 in - - ()
Snow Depth 3.00 in    
Sea Level Pressure  
Sea Level Pressure 30.36 in    
Wind  
Wind Speed 7 mph (West)    
Max Wind Speed 15 mph    
Max Gust Speed -    
Visibility 15 miles    
Events      
Averages and records for this station are not official NWS values.
T = Trace of Precipitation, MM = Missing Value Source: NWS Daily Summary

Daily Weather History Graph

Daily Weather History Graph

Search for Another Location

Airport:

Trip Planner

Search our weather history database for the weather conditions in past years. The results will help you decide how hot, cold, wet, or windy it might be!

Date:

Astronomy

Feb. 06, 2009 Rise Set
Actual Time 6:48 AM EST 5:04 PM EST
Civil Twilight 6:19 AM EST 5:33 PM EST
Nautical Twilight 5:46 AM EST 6:06 PM EST
Astronomical Twilight 5:14 AM EST 6:38 PM EST
Moon 1:33 PM EST (2/6) 4:34 AM EST (2/6)
Length of Visible Light 11h 13m
Length of Day
10h 15m
Waxing Gibbous, 88% of the Moon is Illuminated
Feb 6
Waxing Gibbous
Feb 9
Full
Feb 16
Last Quarter
Feb 24
New
Mar 4
First Quarter

Hourly Weather History & Observations

Time (EST) Temp. Windchill Dew Point Humidity Pressure Visibility Wind Dir Wind Speed Gust Speed Precip Events Conditions
12:55 AM 6.8 °F -6.9 °F -0.4 °F 72% 30.32 in 15.0 mi WNW 9.2 mph - N/A   Clear
1:55 AM 6.8 °F -7.8 °F -0.4 °F 72% 30.34 in 15.0 mi West 10.4 mph - N/A   Clear
2:55 AM 6.8 °F -4.8 °F -0.4 °F 72% 30.33 in 15.0 mi West 6.9 mph - N/A   Partly Cloudy
3:55 AM 5.0 °F -6.9 °F -0.4 °F 78% 30.34 in 15.0 mi West 6.9 mph - N/A   Partly Cloudy
4:55 AM 5.0 °F - -0.4 °F 78% 30.34 in 15.0 mi WNW 2.3 mph - N/A   Partly Cloudy
5:55 AM 5.0 °F - -0.4 °F 78% 30.36 in 15.0 mi Calm Calm - N/A   Scattered Clouds
6:55 AM 5.0 °F - -0.4 °F 78% 30.37 in 15.0 mi Calm Calm - N/A   Mostly Cloudy
7:55 AM 8.6 °F -1.3 °F 1.4 °F 73% 30.37 in 15.0 mi West 5.8 mph - N/A   Overcast
8:55 AM 10.4 °F -3.3 °F 1.4 °F 67% 30.39 in 15.0 mi West 10.4 mph - N/A   Mostly Cloudy
9:55 AM 12.2 °F 2.9 °F 3.2 °F 67% 30.39 in 15.0 mi West 5.8 mph - N/A   Mostly Cloudy
10:55 AM 14.0 °F 5.1 °F 5.0 °F 67% 30.39 in 15.0 mi West 5.8 mph - N/A   Mostly Cloudy
11:55 AM 19.4 °F 7.9 °F 6.8 °F 58% 30.36 in 15.0 mi West 10.4 mph - N/A   Scattered Clouds
12:55 PM 21.2 °F 10.9 °F 8.6 °F 58% 30.32 in 15.0 mi WSW 9.2 mph - N/A   Partly Cloudy
1:55 PM 23.0 °F 10.6 °F 8.6 °F 54% 30.32 in 15.0 mi WSW 13.8 mph - N/A   Partly Cloudy
2:55 PM 23.0 °F 11.1 °F 12.2 °F 63% 30.33 in 15.0 mi SW 12.7 mph - N/A   Scattered Clouds
3:55 PM 23.0 °F 10.1 °F 12.2 °F 63% 30.33 in 15.0 mi SW 15.0 mph - N/A   Partly Cloudy
4:55 PM 21.2 °F 11.7 °F 14.0 °F 74% 30.32 in 15.0 mi SW 8.1 mph - N/A   Partly Cloudy
5:55 PM 21.2 °F 10.9 °F 12.2 °F 68% 30.33 in 15.0 mi WSW 9.2 mph - N/A   Partly Cloudy
6:55 PM 21.2 °F 16.4 °F 12.2 °F 68% 30.35 in 15.0 mi WNW 3.5 mph - N/A   Clear
7:55 PM 19.4 °F 11.5 °F 12.2 °F 74% 30.37 in 15.0 mi West 5.8 mph - N/A   Clear
8:55 PM 17.6 °F 12.3 °F 10.4 °F 73% 30.38 in 15.0 mi South 3.5 mph - N/A   Clear
9:55 PM 17.6 °F 12.3 °F 10.4 °F 73% 30.39 in 15.0 mi West 3.5 mph - N/A   Clear
10:55 PM 15.8 °F 7.2 °F 10.4 °F 79% 30.40 in 15.0 mi West 5.8 mph - N/A   Clear
11:55 PM 17.6 °F 10.7 °F 10.4 °F 73% 30.40 in 15.0 mi West 4.6 mph - N/A   Clear